Location: Fort Worth, Tx
(32.7431°N, 97.3695°W)
Time: 11:18:30
(UTC-04:00)

A-11 Canister half - Pass Details

Date: 19 August 2024
Orbit: 1524 x 1684 km, 47.3° (Epoch: 13 September)

Event Time Altitude Azimuth Distance (km) Brightness Sun altitude
Rises 22:10:42 0° 223° (SW) 4,808 11.9 -13.0°
Reaches altitude 10° 22:13:46 10° 221° (SW) 3,845 11.3 -13.6°
Maximum altitude 22:23:37 76° 138° (SE) 1,703 9.1 -15.5°
Drops below altitude 10° 22:33:45 10° 55° (NE) 3,946 10.9 -17.4°
Sets 22:36:56 0° 54° (NE) 4,940 11.4 -17.9°
